Wind_Speed
18 16 14 13 13 13 13 13 12 11 11 10 10 10 10 9 8 8 7 7 6 6 6 6 6 6 6 6 5 5 6 7 6 6 6 7 7 7 8 8 6 4 1 2 6 9 13 12 9 11 11 9 9 9 10 10 9 9 10 10 10 10 10
17 15 14 14 14 13 13 13 12 11 11 11 11 10 10 9 8 8 7 7 6 6 6 6 5 6 6 6 5 5 5 5 5 6 6 7 7 7 8 9 8 6 4 4 7 7 10 12 13 14 12 9 9 10 10 10 10 10 11 11 12 12 12
16 14 14 14 14 13 13 13 12 12 11 11 10 10 10 9 8 8 8 7 7 7 7 6 6 6 5 5 5 5 4 5 5 5 5 6 7 7 8 9 9 7 5 5 7 8 8 10 13 14 11 9 10 11 11 11 12 13 13 13 14 14 15
16 14 15 15 14 14 13 13 13 12 11 11 10 9 9 9 9 8 8 8 7 7 7 7 8 7 6 5 5 5 4 4 4 3 3 5 6 8 8 8 7 5 5 5 6 9 9 10 14 14 10 9 10 12 14 14 15 15 15 16 16 17 16
13 13 13 14 14 14 14 14 14 13 11 10 10 10 10 9 9 8 7 7 7 8 8 8 9 8 7 6 6 5 4 3 3 2 2 3 4 5 7 7 6 5 4 4 5 8 9 8 12 14 11 9 12 15 15 16 17 16 16 17 17 16 16
12 12 12 12 13 14 14 14 13 12 11 11 12 12 12 10 9 8 7 7 7 8 9 9 10 9 7 7 6 6 5 4 4 3 2 2 2 4 5 6 6 5 5 4 4 7 9 9 11 13 11 10 16 19 17 17 18 18 17 17 17 16 14
12 12 12 13 14 14 13 12 10 10 11 11 11 12 12 10 9 8 7 6 6 7 10 10 10 9 8 8 8 7 7 6 5 5 4 3 2 2 5 6 7 7 6 4 5 7 8 8 10 14 13 12 14 17 18 19 19 18 18 17 16 15 13
12 12 13 13 13 13 11 10 9 10 10 9 9 9 10 9 8 8 6 4 4 8 10 10 9 8 8 8 8 8 7 6 6 6 4 4 3 2 4 7 8 7 6 6 7 7 6 5 8 12 12 14 15 14 15 17 16 17 19 18 16 14 12
13 13 13 12 11 11 10 10 9 9 9 8 7 8 9 9 8 7 5 3 4 8 10 9 8 8 7 8 8 8 7 7 7 6 5 4 3 3 4 7 7 7 7 8 8 7 6 6 8 8 8 13 18 18 15 14 14 18 19 17 16 14 12
13 12 12 11 12 11 10 10 8 8 8 6 7 10 11 11 10 7 4 3 4 7 8 9 8 7 7 7 8 8 8 8 7 6 4 3 3 3 4 5 6 6 8 9 9 8 8 8 8 7 7 10 14 19 20 15 14 18 18 17 15 14 13
14 12 10 11 12 12 11 10 8 7 7 7 9 13 13 12 10 7 4 3 4 6 6 7 7 7 6 6 6 7 7 8 7 5 5 5 4 4 4 5 6 6 7 8 10 11 11 11 9 7 7 7 9 15 21 20 17 17 17 17 16 15 14
15 12 10 10 11 11 10 9 8 7 7 9 12 14 14 12 10 7 5 4 5 6 7 7 7 7 6 5 5 6 6 7 6 6 8 7 7 7 7 7 6 6 8 10 14 15 13 12 11 9 8 7 5 9 16 20 20 18 17 17 16 15 15
15 13 11 10 10 9 9 9 8 8 8 9 12 14 13 11 9 7 6 6 6 8 8 8 8 8 8 7 6 5 6 7 6 7 9 9 10 10 9 9 9 9 11 14 16 16 14 13 11 10 9 9 8 7 10 15 18 19 18 16 15 15 15
15 14 12 10 9 9 9 9 8 8 9 10 10 12 12 11 9 8 8 8 8 9 9 9 10 10 9 8 7 6 6 6 6 7 9 10 10 10 9 9 9 10 12 13 14 14 14 14 12 10 9 9 9 8 8 11 15 17 17 15 15 15 15
15 14 13 11 10 9 9 9 8 9 10 10 9 11 12 11 10 9 9 9 10 11 11 11 11 11 9 8 7 7 7 7 6 6 8 9 9 8 8 7 6 8 9 10 10 10 11 11 11 10 8 8 9 9 8 9 12 14 16 16 16 15 15
16 15 13 11 10 9 9 9 8 8 9 10 9 10 11 12 11 11 10 11 12 12 12 12 12 12 11 9 9 8 8 7 6 6 7 8 8 7 7 6 5 6 7 8 8 8 7 8 9 9 8 7 8 8 8 8 7 10 14 16 16 16 16
17 16 14 12 11 10 10 9 8 8 9 10 10 10 11 13 13 12 11 12 12 13 13 13 12 12 11 10 10 9 8 8 6 6 7 7 7 7 7 6 6 6 7 7 6 6 6 6 7 8 9 9 9 8 8 8 7 7 10 14 16 17 17
18 16 15 13 11 11 11 10 8 8 9 10 10 10 12 14 14 12 12 12 13 13 12 11 10 9 9 8 8 8 7 7 6 6 7 7 7 7 7 7 7 7 7 6 6 6 6 7 8 9 10 11 12 11 10 9 8 7 9 12 15 17 18
18 16 15 13 12 12 12 11 9 8 10 10 10 10 12 14 14 13 13 13 13 12 10 9 8 7 7 7 7 7 6 5 5 5 5 6 6 6 7 8 9 9 8 8 8 8 7 8 9 10 12 13 14 14 12 11 10 10 11 12 14 15 17
19 17 15 13 13 13 12 10 9 8 8 9 9 10 12 15 15 14 14 13 12 11 9 8 8 7 8 8 7 6 6 5 4 4 4 4 3 3 4 5 7 8 9 10 10 10 10 9 10 11 12 13 15 16 16 15 13 12 13 14 16 16 17
18 18 15 13 14 13 12 11 9 7 7 6 7 9 11 15 16 15 15 14 12 10 9 9 8 8 8 8 8 7 6 5 4 3 3 2 1 1 1 2 3 4 6 7 8 9 10 10 11 11 11 11 12 14 16 17 15 15 15 15 17 18 18
14 18 16 15 15 14 12 11 10 7 6 5 6 8 11 15 17 17 16 15 13 11 10 9 8 8 7 7 7 7 7 6 4 3 2 2 1 1 2 2 2 3 3 4 5 7 8 9 10 11 11 10 10 11 13 16 17 17 17 17 18 19 19
13 18 18 16 16 15 13 12 10 9 6 5 5 7 10 13 16 17 16 15 13 12 11 10 9 8 7 6 6 7 8 7 5 3 3 2 2 3 3 4 5 5 5 6 8 9 9 9 10 11 11 11 10 10 11 14 16 17 17 16 17 19 20
14 17 19 17 17 17 15 11 10 10 9 7 6 7 9 12 14 16 16 15 14 13 12 11 10 10 9 7 7 6 7 8 7 5 4 3 4 5 6 7 8 7 8 9 10 11 12 12 11 12 12 12 12 12 12 14 16 16 16 16 17 17 19
12 13 15 14 13 15 15 10 9 11 11 10 8 8 9 11 13 15 16 15 13 13 13 12 11 11 10 9 8 7 6 7 8 7 6 7 7 8 8 9 10 10 10 11 12 12 13 14 13 13 13 14 14 15 15 16 16 16 17 17 17 17 18
9 9 11 11 10 11 12 10 10 11 12 11 10 10 10 11 12 14 15 15 14 14 14 13 12 12 11 10 10 9 9 9 10 10 10 10 11 11 11 11 11 12 12 12 13 14 14 15 15 15 14 15 15 17 17 17 17 17 17 17 16 17 17
7 7 9 11 11 12 12 11 11 11 11 12 12 11 11 11 11 12 14 15 15 15 15 15 14 14 13 13 12 12 12 12 13 13 13 13 14 13 13 13 13 13 13 13 13 14 15 16 16 16 16 16 17 17 18 18 19 19 18 17 16 16 16
6 7 8 9 11 12 11 11 11 11 11 12 13 13 13 12 12 12 14 15 16 17 17 17 16 16 15 15 15 14 14 14 14 15 15 16 16 16 15 15 15 15 15 14 13 14 15 16 17 17 18 18 18 19 19 19 18 18 18 18 17 16 15
5 6 7 9 10 10 10 10 10 10 11 12 13 14 14 13 13 13 14 16 17 18 19 19 18 18 18 18 18 18 17 16 16 16 17 18 18 18 18 18 17 17 16 16 15 14 15 15 16 18 19 19 20 20 19 19 18 17 17 17 17 16 16
4 5 6 7 9 9 10 11 11 11 12 12 13 14 15 15 15 15 15 16 17 18 20 20 21 21 21 21 22 22 20 19 18 18 19 20 20 21 21 21 20 19 18 17 16 16 16 16 17 19 19 19 21 21 20 19 19 18 18 17 17 17 16
3 4 5 6 7 8 9 10 11 12 12 13 14 15 16 17 18 18 18 18 19 20 20 20 20 21 21 21 22 23 23 22 22 21 21 22 23 23 24 23 22 21 20 18 17 17 17 17 18 19 19 19 21 21 19 19 19 19 18 18 17 16 16
5 4 3 2 3 4 5 7 9 11 13 14 15 15 16 18 19 20 20 21 22 21 20 19 20 21 21 21 22 24 25 25 25 24 24 24 24 25 25 24 23 22 21 20 19 19 18 18 19 19 19 18 19 18 17 17 17 17 18 18 17 16 16
10 9 9 8 6 4 2 2 3 6 8 11 13 14 14 15 16 16 18 20 20 19 18 19 20 20 20 20 22 23 25 26 27 27 27 26 26 26 26 25 23 22 21 22 21 20 19 19 19 19 18 17 17 17 17 17 16 16 17 16 16 15 15
11 11 11 11 9 8 6 5 4 3 2 3 4 6 7 9 10 11 14 15 14 15 16 17 17 18 18 18 19 20 21 23 24 25 25 25 25 24 24 23 23 23 22 23 24 23 20 20 19 18 17 16 16 15 16 18 18 17 16 16 16 15 14
9 9 9 9 8 8 7 7 7 6 6 5 5 5 5 5 6 8 10 11 11 11 13 15 15 17 18 18 17 18 18 19 20 20 20 21 22 22 21 20 22 23 21 23 25 24 21 20 20 18 17 16 15 14 15 17 18 18 17 17 15 14 14
5 5 4 4 5 5 5 5 5 5 5 5 5 5 5 6 6 7 9 10 10 10 10 11 12 14 15 16 17 17 17 18 19 20 20 20 20 20 20 19 20 20 19 21 24 22 20 21 21 19 18 18 18 17 16 17 18 18 18 17 15 14 14
3 3 4 4 5 5 5 6 6 6 6 6 6 7 7 8 8 9 10 11 11 11 12 12 12 13 14 16 17 17 16 17 17 18 18 18 18 18 18 18 17 17 17 18 21 21 21 22 20 17 17 19 19 18 18 18 18 17 16 15 14 14 13
Wind_Direction
183 184 184 182 181 182 180 178 178 177 177 177 175 176 176 174 171 169 171 169 173 177 172 171 165 158 164 175 185 195 199 204 203 191 193 207 214 217 211 208 208 215 270 165 161 159 152 145 144 143 142 146 148 139 132 130 131 132 130 132 136 135 131
182 187 188 182 179 181 181 179 179 178 177 175 172 171 172 173 173 170 171 174 179 181 179 182 177 167 167 175 188 203 212 214 208 197 198 204 215 232 235 233 231 235 246 174 160 167 162 153 146 147 150 153 147 138 133 130 129 129 129 130 130 129 126
181 185 186 182 181 181 182 181 178 176 176 175 172 171 174 178 178 176 176 179 184 187 190 193 193 189 184 184 190 200 210 214 213 209 209 211 214 225 236 240 237 235 236 196 170 171 168 157 152 152 154 153 144 135 133 134 132 128 125 125 125 125 123
179 183 187 184 183 183 184 181 176 176 177 178 177 175 177 179 178 175 176 181 190 196 201 205 203 199 196 192 192 197 206 209 211 214 223 228 221 217 222 226 231 239 239 226 196 182 176 165 161 159 153 150 144 137 133 131 128 126 123 122 123 123 121
176 183 193 192 188 186 185 180 176 177 179 181 181 178 176 175 174 176 180 184 191 197 202 204 201 196 189 183 184 188 189 186 186 191 213 233 222 212 209 207 220 227 210 220 216 190 183 176 166 159 152 148 143 136 132 129 127 125 124 123 122 121 120
175 177 189 197 195 188 184 182 179 177 179 180 178 175 173 173 173 172 171 171 176 184 188 190 189 185 176 169 164 156 148 142 137 129 128 142 161 183 189 191 199 185 162 187 207 189 186 181 165 153 148 149 144 137 133 131 128 126 126 125 124 124 122
178 178 183 193 194 186 182 183 180 174 174 170 167 169 171 172 168 157 151 150 161 170 174 176 177 173 166 158 148 139 131 122 119 119 112 102 105 159 174 175 174 164 158 175 175 172 178 178 169 158 146 140 139 136 136 135 130 129 131 131 131 131 129
179 181 183 187 189 185 182 179 172 167 165 154 152 164 172 175 166 151 143 135 154 167 168 169 171 170 163 154 147 138 132 125 122 121 112 95 81 104 164 172 167 162 165 160 144 146 157 170 173 165 155 147 139 135 139 138 136 138 139 139 139 138 137
173 175 179 184 191 189 181 172 165 162 158 147 152 166 171 174 165 152 146 131 141 159 166 168 169 171 165 156 153 147 142 139 133 127 122 108 89 94 158 175 172 170 168 153 140 140 144 158 164 159 165 163 150 143 144 142 142 145 144 143 143 143 144
171 171 175 183 190 186 173 164 162 160 157 156 165 165 165 166 159 151 150 138 133 149 163 171 174 173 165 158 153 148 148 148 140 135 141 138 116 111 147 174 181 179 169 156 148 141 135 148 154 141 154 171 163 155 151 147 149 151 150 148 147 150 153
171 171 174 179 179 173 167 162 161 160 156 159 162 159 159 158 154 152 149 136 138 146 153 162 170 172 167 160 149 143 145 143 138 137 135 128 120 119 135 166 176 172 163 153 144 136 134 144 145 127 130 154 174 170 159 151 151 156 158 157 156 159 162
174 174 172 173 168 163 164 162 159 159 155 155 156 156 158 156 154 154 143 130 141 148 145 144 152 157 158 158 150 144 138 131 126 124 117 110 111 115 124 141 145 140 139 140 138 135 139 149 145 123 114 119 142 174 167 156 154 159 163 164 164 166 168
177 175 170 168 164 160 162 163 161 161 160 157 156 157 158 156 156 151 137 132 141 149 147 142 144 145 146 151 154 152 140 126 118 114 114 113 113 111 111 118 123 125 129 133 136 138 143 153 151 131 118 114 115 147 168 161 157 162 166 167 168 170 173
179 177 172 168 167 165 165 165 162 164 166 162 159 161 163 161 158 148 138 140 144 148 150 148 146 143 143 146 150 153 148 136 124 113 115 118 116 110 104 106 116 124 128 131 134 137 144 154 157 145 130 124 121 128 155 165 162 163 166 168 170 174 177
181 180 177 174 175 175 172 169 164 165 168 165 162 164 168 167 159 150 146 147 148 149 149 147 143 137 135 136 138 142 146 141 131 120 118 121 120 113 105 105 118 129 132 135 135 136 144 156 166 167 153 140 133 128 141 164 169 166 167 171 174 178 179
182 181 181 180 180 180 177 172 167 166 169 169 167 166 167 167 160 153 151 150 148 147 146 143 137 131 126 124 122 123 129 132 134 134 129 127 128 124 120 122 128 138 143 144 145 147 153 164 180 191 189 174 159 147 147 161 173 173 173 175 177 182 184
182 181 183 182 181 182 179 174 169 169 172 172 171 169 166 165 161 156 154 153 149 145 143 139 135 131 127 123 119 116 116 123 135 149 153 149 146 143 145 148 147 149 154 156 161 168 176 187 199 211 217 211 197 184 171 171 182 190 187 182 181 186 190
184 183 184 181 180 180 176 170 167 171 174 174 175 174 170 166 162 159 158 155 151 146 143 142 139 137 135 130 127 123 120 123 132 151 167 174 177 174 173 175 173 172 175 179 184 191 199 209 217 223 230 231 222 211 199 190 196 206 207 199 191 189 191
189 185 181 179 178 175 170 165 165 170 174 176 180 179 174 169 164 162 162 159 155 152 150 151 152 149 146 140 137 134 131 133 138 150 164 174 185 194 194 195 197 196 199 202 205 209 218 229 237 238 241 244 242 233 223 214 211 214 215 212 206 197 192
193 182 178 179 175 169 164 161 161 165 169 175 180 181 177 172 167 166 166 164 164 165 165 166 167 165 158 151 147 146 143 143 149 154 161 165 170 184 197 203 207 208 211 215 218 220 224 231 239 244 247 249 249 245 238 230 224 221 219 216 212 206 201
191 178 178 180 174 170 167 164 161 160 158 162 173 179 178 175 172 171 171 172 175 177 178 177 176 177 176 171 169 169 163 159 163 166 170 179 189 199 212 213 216 220 222 224 227 228 226 225 227 232 240 244 243 238 232 228 222 217 218 218 216 213 211
190 180 183 182 177 175 175 172 169 163 153 145 160 177 180 179 177 176 178 181 183 186 187 187 184 185 188 190 192 193 190 184 185 191 197 217 249 276 292 286 276 274 273 273 267 254 243 232 225 223 225 233 237 227 213 210 210 211 213 215 215 215 214
202 191 188 184 182 181 181 181 182 180 171 151 157 175 182 185 183 182 185 189 191 193 195 196 198 197 197 203 208 209 207 204 203 211 226 237 253 271 289 296 294 291 294 300 298 287 272 256 240 230 224 223 227 221 205 200 204 211 215 217 216 216 217
216 204 193 189 186 180 176 178 184 191 189 179 175 181 187 192 192 190 192 196 200 204 205 207 211 214 213 216 224 225 217 212 213 225 243 256 270 281 286 290 290 286 289 296 296 289 279 267 253 241 233 224 220 218 213 209 211 216 220 223 223 221 221
224 218 206 199 184 171 173 180 189 197 199 194 192 194 197 202 202 200 200 204 210 215 216 216 221 225 224 221 225 233 234 228 230 238 249 260 271 279 284 285 284 282 285 288 288 284 276 266 255 245 237 230 223 219 217 217 219 221 222 224 225 223 224
227 230 225 219 199 186 198 210 206 202 203 203 204 206 208 211 212 210 210 213 218 223 224 227 231 236 237 235 234 237 241 245 249 253 258 263 268 274 278 281 281 282 283 283 281 277 270 260 252 245 238 233 228 225 222 221 222 224 226 227 228 227 228
218 220 217 214 203 200 210 213 207 207 209 209 212 215 215 218 220 221 222 223 226 229 232 237 243 246 248 250 249 248 249 253 256 258 261 263 265 269 273 275 277 280 282 280 277 273 266 256 248 242 238 235 233 230 228 225 224 225 226 227 228 229 231
200 200 197 200 200 202 206 207 208 214 218 217 219 221 220 221 225 229 232 234 235 236 239 246 250 251 254 257 258 259 258 258 259 261 262 262 262 265 268 270 273 277 279 277 274 271 264 254 244 239 238 238 238 236 232 228 226 227 227 226 225 225 225
198 198 195 199 204 208 210 212 217 220 222 222 223 223 223 224 229 234 238 240 240 241 246 251 252 254 259 262 263 264 264 262 261 262 263 262 261 263 265 267 270 274 277 275 272 268 261 251 241 237 237 238 238 236 233 231 232 232 231 227 225 224 222
209 216 213 214 220 224 224 228 232 230 227 228 229 231 232 231 232 236 240 244 248 252 255 256 257 259 264 266 264 264 265 264 262 262 264 264 263 263 265 267 269 271 274 274 271 266 258 248 238 234 235 237 237 234 235 237 238 236 233 228 225 223 220
193 221 228 230 234 236 235 236 238 237 236 238 240 241 240 239 240 243 248 255 261 262 261 261 261 263 266 267 266 266 267 266 263 261 262 262 262 264 267 269 270 270 271 271 269 263 253 243 237 235 235 236 235 234 236 238 235 232 229 224 219 217 215
107 123 143 168 200 221 226 227 230 234 236 240 243 244 244 246 248 250 255 260 262 260 259 260 263 265 267 267 266 266 267 268 266 263 261 260 261 263 266 269 271 271 271 268 264 257 247 238 237 237 236 236 235 233 233 233 229 225 223 218 213 212 210
87 88 89 87 85 86 101 155 212 228 233 236 240 243 245 248 252 254 255 256 256 256 259 262 264 267 268 268 266 265 265 266 265 263 261 261 261 262 265 268 270 271 272 271 263 252 242 239 239 236 234 235 236 232 226 221 216 213 214 211 206 203 200
73 71 70 68 64 62 62 57 46 27 339 290 271 266 264 262 263 263 262 263 263 261 262 265 264 265 267 268 267 265 263 264 266 266 264 262 263 265 268 269 269 269 271 271 262 247 237 238 239 233 230 230 230 228 223 214 205 200 200 200 196 194 195
70 66 61 56 51 48 47 43 37 34 29 20 6 352 337 317 304 293 287 290 290 280 273 272 270 269 270 272 271 267 264 265 269 271 271 268 269 273 275 273 269 267 269 269 261 248 238 234 230 224 221 219 213 213 215 211 202 195 191 191 193 195 200
54 50 42 34 26 21 21 19 15 14 13 8 358 349 343 336 328 319 314 314 313 306 298 291 285 280 277 276 274 271 267 267 269 273 276 277 278 278 277 276 271 267 267 264 257 247 237 230 224 218 217 215 209 205 205 204 199 194 191 192 196 200 205
342 337 335 333 331 329 325 325 325 324 323 323 322 319 316 314 311 308 307 308 308 310 310 306 302 297 290 284 281 278 274 270 269 270 274 278 281 280 277 275 268 261 259 256 251 244 234 227 223 219 217 215 208 200 197 196 194 193 194 196 199 202 203
Height
1534 1536 1537 1538 1540 1541 1542 1543 1544 1545 1546 1547 1548 1549 1550 1551 1552 1552 1553 1554 1555 1555 1556 1557 1558 1559 1560 1560 1561 1562 1563 1563 1564 1565 1566 1567 1568 1568 1569 1571 1572 1573 1573 1574 1575 1576 1577 1578 1579 1580 1580 1580 1581 1581 1582 1582 1583 1584 1584 1585 1585 1586 1587
1534 1535 1536 1538 1539 1540 1541 1542 1544 1545 1546 1547 1548 1549 1550 1551 1551 1552 1553 1554 1554 1555 1556 1557 1558 1559 1559 1560 1561 1562 1562 1563 1564 1565 1566 1566 1567 1568 1569 1571 1572 1573 1573 1574 1575 1575 1576 1577 1579 1579 1580 1580 1581 1581 1582 1582 1583 1584 1584 1585 1586 1587 1587
1533 1534 1536 1537 1538 1540 1541 1542 1544 1545 1546 1547 1547 1548 1549 1550 1551 1552 1553 1554 1554 1555 1555 1556 1557 1558 1559 1560 1561 1561 1562 1563 1564 1564 1565 1566 1567 1568 1569 1570 1571 1572 1573 1573 1574 1575 1576 1577 1578 1579 1580 1581 1581 1581 1581 1582 1583 1584 1585 1585 1586 1587 1587
1532 1533 1535 1537 1538 1539 1541 1542 1543 1544 1545 1546 1547 1548 1549 1550 1551 1552 1553 1554 1554 1555 1555 1556 1557 1558 1559 1560 1560 1561 1562 1562 1563 1564 1565 1566 1566 1567 1568 1570 1571 1572 1572 1573 1574 1575 1576 1576 1577 1579 1580 1581 1581 1581 1582 1582 1583 1584 1585 1586 1586 1587 1588
1531 1533 1535 1537 1538 1539 1540 1541 1543 1544 1545 1546 1546 1547 1549 1550 1551 1553 1553 1554 1554 1555 1555 1556 1557 1558 1559 1559 1560 1561 1561 1562 1563 1564 1564 1565 1566 1567 1568 1569 1570 1571 1572 1573 1574 1575 1576 1576 1577 1579 1580 1581 1581 1581 1582 1583 1584 1585 1586 1586 1587 1588 1589
1532 1533 1536 1537 1538 1539 1540 1541 1542 1543 1544 1545 1546 1547 1549 1550 1552 1553 1554 1554 1554 1555 1555 1556 1557 1558 1559 1559 1560 1561 1561 1562 1563 1563 1564 1565 1566 1566 1567 1568 1569 1570 1571 1572 1573 1574 1575 1576 1577 1578 1579 1580 1580 1581 1583 1584 1585 1586 1587 1587 1588 1589 1590
1532 1534 1535 1536 1537 1538 1540 1541 1542 1543 1545 1546 1546 1547 1549 1550 1552 1553 1553 1554 1554 1555 1555 1556 1557 1558 1558 1559 1560 1561 1561 1562 1563 1563 1564 1565 1565 1566 1567 1568 1569 1570 1570 1571 1573 1574 1575 1575 1576 1577 1578 1580 1582 1582 1583 1585 1585 1586 1587 1588 1589 1590 1591
1532 1533 1534 1536 1537 1538 1540 1541 1542 1544 1544 1545 1546 1547 1549 1550 1552 1552 1553 1554 1554 1555 1555 1556 1557 1558 1558 1559 1560 1561 1561 1562 1563 1564 1564 1565 1565 1566 1567 1567 1568 1569 1570 1571 1572 1574 1575 1575 1576 1577 1577 1578 1581 1584 1584 1585 1586 1587 1587 1588 1589 1590 1591
1531 1532 1533 1535 1537 1538 1540 1541 1542 1543 1544 1545 1546 1547 1548 1550 1551 1552 1553 1554 1554 1555 1555 1556 1557 1558 1559 1559 1560 1561 1562 1562 1563 1564 1565 1565 1566 1566 1567 1567 1568 1569 1570 1571 1572 1574 1575 1576 1577 1578 1578 1578 1579 1582 1585 1586 1587 1587 1588 1588 1589 1590 1591
1529 1531 1533 1535 1537 1538 1540 1541 1541 1542 1543 1544 1545 1546 1548 1549 1551 1552 1553 1553 1554 1555 1556 1556 1557 1558 1559 1560 1561 1562 1562 1563 1564 1564 1565 1565 1566 1566 1567 1567 1568 1569 1570 1571 1572 1574 1575 1576 1578 1579 1579 1579 1579 1580 1582 1584 1586 1587 1588 1588 1589 1590 1592
1529 1531 1533 1535 1536 1538 1539 1540 1541 1542 1543 1544 1545 1546 1548 1549 1551 1552 1552 1553 1554 1555 1556 1556 1558 1558 1559 1560 1561 1562 1563 1563 1564 1564 1565 1565 1566 1566 1567 1567 1568 1569 1570 1571 1572 1574 1575 1577 1578 1579 1580 1581 1581 1580 1581 1583 1585 1587 1588 1589 1590 1591 1592
1529 1531 1533 1535 1536 1537 1539 1540 1541 1542 1543 1544 1545 1546 1548 1549 1550 1551 1552 1553 1553 1554 1556 1556 1557 1558 1559 1561 1562 1563 1563 1564 1565 1565 1565 1566 1566 1566 1567 1568 1569 1570 1571 1571 1572 1574 1575 1577 1579 1580 1580 1581 1581 1582 1582 1583 1584 1586 1588 1589 1590 1591 1592
1529 1531 1533 1534 1536 1537 1538 1539 1541 1542 1542 1543 1544 1546 1548 1549 1550 1551 1552 1553 1553 1554 1556 1556 1558 1559 1560 1561 1562 1563 1564 1565 1565 1566 1566 1566 1567 1567 1568 1569 1570 1570 1571 1572 1573 1574 1576 1577 1579 1580 1581 1581 1582 1583 1583 1584 1584 1586 1588 1589 1590 1591 1592
1529 1531 1532 1534 1535 1536 1537 1539 1540 1541 1542 1543 1544 1546 1547 1549 1550 1551 1552 1553 1553 1554 1556 1557 1558 1559 1560 1561 1562 1563 1564 1565 1566 1567 1567 1567 1568 1568 1569 1570 1571 1572 1573 1573 1574 1575 1576 1578 1579 1581 1581 1582 1582 1583 1584 1585 1585 1586 1587 1589 1590 1591 1592
1529 1531 1532 1534 1535 1536 1537 1538 1539 1541 1542 1543 1544 1546 1547 1549 1550 1551 1552 1553 1554 1555 1556 1557 1558 1559 1560 1561 1562 1563 1564 1565 1567 1567 1568 1568 1569 1569 1570 1571 1572 1573 1574 1575 1575 1576 1577 1578 1580 1581 1581 1582 1583 1583 1584 1585 1586 1586 1587 1588 1589 1590 1592
1528 1530 1532 1533 1534 1535 1537 1538 1539 1540 1541 1543 1544 1546 1547 1549 1550 1551 1552 1553 1554 1555 1557 1558 1559 1560 1561 1562 1563 1564 1564 1565 1567 1568 1568 1569 1570 1570 1571 1572 1573 1573 1574 1575 1576 1577 1578 1579 1580 1581 1581 1582 1583 1584 1584 1585 1586 1586 1587 1588 1589 1590 1591
1527 1529 1531 1532 1534 1535 1536 1537 1538 1540 1541 1542 1544 1545 1547 1548 1550 1551 1553 1554 1555 1556 1557 1559 1560 1561 1562 1563 1563 1564 1565 1566 1567 1568 1569 1570 1570 1571 1572 1573 1573 1574 1575 1576 1577 1578 1578 1579 1580 1580 1581 1582 1583 1584 1584 1585 1586 1587 1587 1588 1589 1590 1591
1526 1528 1530 1532 1533 1534 1535 1537 1538 1539 1540 1542 1543 1545 1546 1548 1550 1552 1553 1554 1555 1557 1558 1559 1560 1561 1562 1563 1564 1565 1566 1566 1567 1568 1569 1570 1571 1572 1572 1573 1574 1575 1575 1576 1577 1578 1578 1579 1580 1580 1581 1581 1582 1583 1584 1585 1586 1587 1587 1587 1588 1589 1590
1525 1527 1529 1531 1533 1534 1535 1536 1537 1539 1540 1541 1543 1544 1546 1548 1550 1552 1553 1554 1556 1557 1558 1560 1561 1562 1563 1564 1565 1565 1566 1567 1568 1569 1569 1570 1571 1572 1573 1573 1574 1575 1575 1576 1577 1577 1578 1579 1579 1580 1580 1581 1581 1582 1583 1584 1585 1586 1586 1586 1587 1587 1588
1524 1526 1529 1531 1532 1534 1535 1536 1538 1539 1540 1541 1542 1544 1546 1547 1549 1551 1553 1554 1556 1557 1558 1560 1561 1562 1563 1564 1565 1566 1567 1567 1568 1569 1570 1570 1571 1572 1572 1573 1574 1574 1575 1575 1576 1577 1577 1578 1578 1579 1579 1579 1580 1580 1582 1583 1584 1585 1585 1585 1586 1586 1587
1523 1526 1529 1531 1532 1534 1535 1537 1538 1539 1540 1541 1542 1543 1545 1547 1549 1551 1553 1554 1556 1557 1558 1560 1561 1562 1563 1564 1565 1566 1567 1567 1568 1569 1570 1570 1571 1571 1572 1572 1573 1574 1574 1575 1575 1576 1576 1577 1577 1577 1578 1578 1578 1578 1579 1581 1582 1583 1584 1584 1585 1585 1586
1524 1527 1529 1531 1532 1533 1535 1537 1538 1539 1540 1541 1542 1543 1545 1546 1548 1550 1552 1554 1555 1557 1558 1560 1561 1562 1563 1564 1565 1566 1566 1567 1568 1568 1569 1570 1571 1571 1571 1572 1572 1573 1573 1574 1574 1575 1575 1575 1576 1576 1576 1576 1577 1577 1577 1579 1580 1582 1582 1583 1583 1584 1585
1524 1526 1528 1529 1531 1532 1535 1536 1538 1539 1540 1541 1542 1543 1545 1546 1548 1549 1551 1553 1555 1557 1558 1560 1561 1562 1563 1564 1565 1565 1566 1566 1567 1568 1568 1569 1570 1570 1571 1571 1571 1572 1572 1572 1573 1573 1573 1574 1574 1575 1575 1575 1575 1576 1576 1577 1579 1580 1581 1581 1582 1582 1583
1523 1524 1526 1527 1529 1531 1533 1535 1537 1539 1540 1541 1542 1544 1545 1546 1548 1549 1551 1553 1555 1556 1558 1559 1560 1561 1562 1564 1565 1565 1565 1565 1566 1567 1568 1568 1569 1569 1570 1570 1570 1570 1570 1570 1571 1571 1571 1572 1572 1573 1573 1573 1574 1574 1575 1576 1577 1578 1579 1579 1580 1580 1581
1523 1524 1525 1526 1528 1530 1532 1535 1537 1538 1540 1541 1542 1543 1545 1546 1547 1549 1550 1552 1554 1555 1557 1558 1559 1560 1561 1562 1563 1564 1565 1565 1565 1566 1567 1567 1568 1568 1568 1568 1568 1568 1568 1568 1568 1568 1568 1569 1569 1570 1571 1571 1572 1572 1573 1574 1574 1575 1576 1577 1578 1578 1579
1523 1524 1525 1527 1528 1531 1533 1535 1537 1538 1539 1541 1542 1543 1545 1546 1547 1548 1550 1552 1553 1554 1556 1557 1558 1559 1560 1561 1562 1563 1564 1564 1564 1565 1565 1566 1566 1566 1566 1566 1566 1566 1566 1566 1566 1566 1566 1566 1567 1567 1568 1569 1570 1570 1571 1572 1572 1573 1574 1575 1575 1576 1576
1523 1524 1525 1527 1528 1531 1533 1534 1536 1537 1538 1540 1542 1543 1544 1545 1546 1548 1549 1551 1552 1553 1555 1555 1556 1557 1558 1559 1560 1561 1562 1562 1563 1563 1563 1563 1564 1564 1564 1564 1564 1564 1564 1564 1564 1563 1563 1563 1564 1565 1566 1566 1567 1568 1569 1569 1570 1571 1571 1572 1573 1573 1574
1523 1524 1526 1527 1529 1530 1532 1533 1534 1536 1537 1539 1540 1542 1543 1544 1545 1547 1548 1549 1550 1552 1553 1554 1555 1556 1556 1557 1558 1559 1559 1560 1560 1561 1561 1561 1561 1561 1562 1562 1562 1562 1562 1562 1561 1561 1561 1561 1561 1562 1563 1564 1565 1565 1566 1566 1567 1568 1568 1569 1570 1571 1572
1524 1526 1527 1528 1529 1530 1532 1533 1534 1535 1537 1538 1539 1541 1542 1543 1544 1545 1546 1547 1549 1550 1551 1552 1553 1554 1554 1555 1556 1556 1556 1557 1557 1558 1558 1558 1558 1559 1559 1559 1559 1560 1559 1559 1559 1559 1558 1558 1559 1560 1560 1561 1562 1563 1563 1564 1564 1565 1566 1566 1567 1568 1569
1526 1527 1528 1529 1530 1531 1532 1533 1534 1535 1536 1537 1539 1540 1541 1542 1543 1543 1545 1546 1547 1548 1549 1550 1551 1551 1552 1552 1553 1553 1553 1554 1554 1555 1555 1555 1555 1556 1556 1556 1557 1557 1557 1556 1556 1556 1556 1556 1556 1557 1558 1559 1559 1560 1561 1561 1562 1562 1563 1564 1565 1566 1567
1527 1528 1528 1529 1530 1530 1531 1532 1533 1534 1535 1536 1537 1538 1539 1540 1541 1542 1543 1544 1545 1546 1546 1547 1548 1548 1549 1550 1550 1551 1551 1551 1551 1551 1551 1552 1552 1552 1553 1554 1554 1554 1553 1553 1553 1553 1554 1554 1554 1554 1555 1556 1556 1557 1558 1558 1559 1560 1561 1563 1563 1564 1564
1527 1528 1528 1529 1530 1530 1531 1531 1532 1533 1534 1535 1536 1537 1537 1538 1539 1540 1541 1542 1542 1543 1544 1544 1545 1546 1546 1547 1547 1548 1548 1548 1548 1548 1548 1548 1549 1549 1550 1550 1551 1551 1550 1550 1550 1550 1551 1551 1552 1552 1552 1553 1554 1554 1555 1556 1556 1558 1559 1561 1562 1562 1563
1528 1528 1529 1529 1530 1530 1531 1531 1532 1532 1533 1534 1534 1535 1536 1536 1537 1538 1539 1539 1539 1540 1541 1541 1542 1543 1543 1544 1544 1544 1544 1544 1544 1545 1545 1545 1545 1546 1546 1547 1547 1547 1547 1547 1547 1548 1548 1549 1550 1550 1550 1551 1552 1553 1553 1554 1554 1556 1557 1559 1559 1560 1561
1529 1529 1530 1530 1531 1531 1531 1531 1532 1532 1533 1533 1534 1534 1535 1535 1535 1536 1537 1537 1537 1538 1539 1539 1540 1540 1541 1541 1541 1541 1541 1541 1541 1541 1541 1542 1542 1542 1542 1543 1544 1543 1543 1544 1544 1545 1546 1546 1547 1547 1548 1549 1550 1551 1552 1552 1553 1554 1555 1556 1557 1558 1560
1530 1530 1531 1531 1532 1532 1532 1532 1533 1533 1533 1534 1534 1534 1535 1535 1535 1536 1536 1536 1536 1537 1537 1537 1538 1538 1538 1538 1538 1538 1538 1538 1538 1538 1538 1539 1539 1539 1539 1540 1540 1540 1540 1541 1542 1543 1544 1544 1544 1544 1545 1547 1548 1549 1551 1552 1552 1552 1553 1554 1556 1557 1558
1531 1531 1531 1532 1532 1532 1532 1533 1533 1533 1534 1534 1534 1534 1535 1535 1535 1535 1535 1535 1535 1536 1536 1536 1536 1536 1536 1536 1536 1536 1536 1536 1536 1536 1536 1536 1536 1536 1536 1536 1537 1537 1537 1538 1539 1541 1542 1543 1542 1541 1543 1544 1546 1547 1549 1551 1551 1551 1552 1553 1554 1555 1556
1531 1531 1531 1532 1532 1532 1532 1532 1533 1533 1533 1533 1534 1534 1534 1534 1534 1534 1534 1534 1534 1534 1534 1535 1535 1535 1534 1534 1534 1533 1533 1533 1533 1534 1534 1534 1533 1533 1533 1533 1534 1534 1534 1535 1537 1539 1540 1541 1541 1541 1541 1542 1543 1545 1547 1549 1549 1550 1551 1552 1553 1553 1554